Temperature
18 18 18 18 18 18 18 18 18 18 18 18 18 18 18 18 18 18 18 18 18 18 18 18 18 18 17 17 17 17 17 17 17 16 16 16 16 16 16 16 16 16 16
18 18 18 18 18 18 18 18 18 18 18 18 18 18 18 18 18 18 18 18 18 18 17 17 17 17 17 17 17 17 17 17 17 17 16 16 16 16 16 16 16 16 16
18 18 18 18 18 18 18 18 18 18 18 18 18 18 18 18 18 18 18 18 18 17 17 17 17 17 17 17 17 17 17 17 17 17 16 16 16 16 16 16 16 16 16
18 18 18 18 18 18 18 18 18 18 18 18 18 18 18 18 18 18 18 18 17 17 17 17 17 17 17 17 17 17 17 17 17 17 16 16 16 16 16 16 16 16 16
18 18 18 18 18 18 18 18 18 18 18 18 18 18 18 18 18 18 18 17 17 17 17 17 17 17 17 17 17 17 17 17 17 17 16 16 16 16 16 16 16 16 16
18 18 18 18 18 18 18 18 18 18 18 18 18 18 18 18 18 18 18 17 17 17 17 17 17 17 17 17 17 17 17 16 16 16 16 16 16 16 16 16 16 16 16
18 18 18 18 18 18 18 18 18 18 18 18 18 18 18 18 18 18 18 18 17 17 17 17 17 17 17 17 17 16 16 16 16 16 16 16 16 16 16 16 16 16 15
18 18 18 18 18 18 18 18 18 18 18 18 18 17 17 17 17 17 17 17 17 17 17 17 17 17 17 17 17 17 16 16 16 16 16 16 16 16 16 15 15 15 15
18 18 18 18 18 18 18 18 18 18 18 18 18 17 17 17 17 17 17 17 17 17 17 17 16 17 17 16 16 16 16 16 16 16 16 16 16 15 15 15 15 15 15
18 18 18 18 18 18 18 18 18 18 18 18 18 17 17 17 17 16 16 16 16 16 16 16 16 16 16 16 16 16 16 16 16 16 16 15 15 15 15 15 15 15 15
18 18 18 18 18 18 18 18 18 18 18 17 17 17 17 17 17 17 16 16 16 16 16 16 16 16 16 16 16 16 16 16 15 15 15 15 15 15 15 15 15 15 14
18 18 18 18 18 18 18 18 18 17 17 17 17 17 17 17 17 17 16 16 15 15 15 15 15 15 15 15 15 15 15 15 15 15 15 15 15 15 14 14 14 14 14
18 18 18 18 18 17 17 17 17 17 17 17 17 17 17 17 17 17 16 15 15 15 15 15 15 15 15 15 15 15 15 15 15 15 15 15 14 14 14 14 14 14 14
18 17 17 17 17 17 17 17 17 17 17 17 17 17 17 17 16 16 16 16 15 14 14 14 14 14 14 14 15 15 15 14 14 14 14 14 14 14 14 14 14 14 14
17 17 17 17 17 17 17 17 17 17 16 16 16 16 16 16 16 16 16 16 16 14 14 14 14 14 14 14 14 14 14 14 14 14 14 14 14 14 13 13 13 13 13
17 17 17 17 17 17 17 17 16 16 16 16 16 16 16 16 16 16 16 15 15 15 14 14 14 14 13 14 14 14 13 13 13 13 13 13 13 13 13 13 13 13 13
17 17 17 17 17 16 16 16 16 16 16 16 16 16 16 15 15 15 15 15 15 15 15 14 13 13 13 13 13 13 13 13 13 13 13 13 13 13 13 12 12 12 12
17 17 17 17 17 16 16 16 16 16 16 15 15 15 15 15 15 15 15 15 15 14 14 13 13 13 13 13 13 13 12 12 12 12 12 12 12 12 12 12 12 11 11
17 17 16 16 16 16 16 16 15 15 15 15 15 15 15 15 15 15 15 14 14 14 14 13 13 13 13 12 12 12 12 12 12 12 12 12 11 11 11 11 11 11 11
16 16 16 16 16 16 15 15 15 15 15 15 15 15 15 15 14 14 14 14 14 14 13 13 13 12 12 12 12 12 12 11 11 11 11 11 11 11 11 11 10 10 10
16 16 16 16 15 15 15 15 15 15 15 14 14 14 14 14 14 14 14 14 14 13 13 13 12 12 12 12 12 11 11 11 11 11 11 10 10 10 10 10 10 10 9
16 16 15 15 15 15 15 14 14 14 14 14 14 14 14 13 13 13 13 13 13 13 13 13 12 12 12 11 11 11 11 11 11 10 10 10 10 10 10 10 9 9 9
15 15 15 15 15 14 14 14 14 14 14 14 14 14 13 13 13 13 13 13 12 12 12 12 12 11 11 11 11 11 11 11 10 10 10 10 10 10 9 9 9 9 9
15 15 15 14 14 14 14 14 14 13 13 13 13 13 13 13 12 12 12 12 12 12 11 11 11 11 11 11 11 11 11 10 10 10 10 10 10 9 9 9 9 9 9
15 15 14 14 14 14 13 13 13 13 13 13 12 12 12 12 12 12 12 12 12 11 11 11 11 11 11 11 10 10 10 10 10 10 10 9 9 9 9 9 9 9 8
15 14 14 14 14 13 13 13 13 13 13 12 12 12 12 12 11 11 11 11 11 11 11 11 10 10 10 10 10 10 10 10 10 9 9 9 9 9 9 9 9 9 8
Wind_Speed
3 4 4 4 5 6 5 4 4 4 3 3 3 5 6 8 9 10 11 14 15 15 14 14 13 13 13 12 12 12 12 11 11 11 10 10 10 9 9 9 9 9 9
6 4 3 3 4 5 6 5 4 2 2 1 1 4 6 7 9 10 10 12 14 14 14 14 14 13 13 12 12 12 12 12 12 12 12 11 11 10 10 10 10 10 10
7 5 3 2 3 4 4 3 2 2 1 1 1 1 3 5 8 9 10 11 12 14 14 14 14 13 13 13 13 13 13 13 14 14 13 13 13 12 12 11 11 11 11
7 5 2 2 3 2 2 2 2 2 1 1 1 1 2 3 5 8 9 10 11 11 12 14 13 13 14 13 13 13 13 13 13 13 13 14 13 13 13 12 12 12 12
6 5 3 3 3 1 1 1 2 2 2 1 1 1 1 2 3 5 6 8 9 10 11 12 14 14 14 14 14 13 13 13 12 12 13 13 13 14 14 13 13 13 13
5 4 2 2 2 1 0 0 1 1 2 2 1 1 1 2 1 2 4 5 7 8 9 9 10 12 14 14 14 14 13 13 13 13 12 13 12 12 13 14 14 14 14
4 4 2 1 1 1 1 1 1 1 1 2 1 1 2 2 0 1 2 3 4 6 6 7 8 8 9 13 13 13 13 13 13 12 12 12 13 12 12 12 12 13 13
4 3 3 2 1 1 1 0 1 1 1 2 3 1 1 3 3 1 0 1 2 2 2 5 6 7 7 7 9 12 12 12 11 11 11 11 11 11 11 12 11 11 12
3 3 3 2 1 2 1 2 2 3 2 2 2 3 3 2 1 2 2 1 1 1 1 1 1 3 6 6 6 7 9 11 11 11 11 10 9 9 9 9 10 11 11
2 2 2 2 1 1 1 1 1 2 2 2 1 2 3 4 3 1 2 2 2 2 1 2 2 2 2 3 4 4 6 7 8 8 8 7 7 7 6 6 5 5 6
1 2 2 2 1 1 0 1 0 0 1 2 2 1 1 1 2 3 2 1 2 2 1 2 3 3 3 3 4 4 4 5 5 5 5 4 4 4 4 4 3 3 3
1 2 2 2 1 1 1 1 1 1 0 1 1 1 2 2 2 2 3 2 0 1 2 1 2 3 3 3 4 5 5 4 4 5 4 4 3 3 2 2 1 0 1
1 1 1 1 1 1 1 1 2 1 1 1 0 1 1 2 2 3 4 2 1 1 1 2 1 3 4 4 4 5 6 6 6 6 6 5 4 4 3 3 3 2 2
1 1 2 2 2 2 2 2 2 1 1 1 1 0 1 1 2 3 4 4 2 0 1 1 2 2 3 4 4 6 7 7 7 6 6 6 5 5 4 4 4 4 4
1 2 3 3 3 3 3 3 2 2 2 2 2 1 0 1 1 2 3 4 4 2 1 1 0 1 3 5 6 7 7 8 8 7 6 6 6 5 5 5 5 5 5
2 3 3 4 4 4 4 3 3 3 3 3 2 2 1 1 0 1 1 2 3 4 2 1 1 1 3 5 6 7 7 7 7 7 7 7 6 6 6 6 6 6 7
3 4 4 4 4 4 3 3 3 3 3 3 3 3 2 2 1 1 1 2 2 3 4 1 1 2 2 3 4 6 7 7 7 7 7 7 7 7 7 7 7 7 7
3 4 4 5 4 4 4 4 4 4 4 4 4 4 4 3 3 2 2 2 2 3 4 4 1 1 1 3 3 4 5 6 6 7 7 7 7 7 7 7 7 7 7
4 4 5 5 4 3 4 4 4 4 5 5 5 5 4 4 5 4 4 3 3 3 3 4 2 1 1 2 3 3 4 3 4 5 6 6 6 6 6 6 6 6 6
5 5 5 4 4 4 4 4 4 5 5 5 5 6 5 5 4 4 4 4 4 4 4 4 4 2 1 1 2 2 2 1 1 3 3 3 3 3 3 4 4 4 4
5 5 5 5 4 4 4 5 5 6 6 6 7 7 7 9 9 6 5 4 5 4 4 4 4 3 2 2 1 1 2 1 1 1 1 1 1 1 0 0 1 2 2
6 6 6 5 5 4 6 8 6 5 6 6 6 6 6 9 10 11 11 9 7 6 5 4 3 3 2 1 1 1 2 2 0 1 1 1 0 1 3 2 2 1 1
6 6 6 6 5 5 8 8 8 6 6 5 5 5 6 6 7 7 9 11 10 9 7 5 5 3 2 1 2 2 1 2 1 1 2 0 1 1 4 3 3 3 3
5 5 5 5 5 6 8 8 9 7 6 6 5 5 5 5 5 5 7 7 7 6 5 4 4 2 1 1 2 2 2 2 1 1 2 1 1 1 3 4 5 5 5
5 4 4 5 5 4 7 8 8 5 6 6 5 5 5 5 7 8 7 7 6 5 7 7 6 5 5 4 4 4 3 3 2 1 1 1 1 1 2 2 5 6 6
5 5 5 4 4 4 6 7 7 5 5 4 4 5 6 6 7 7 6 6 5 3 3 4 5 6 5 6 6 3 3 3 1 1 1 1 0 0 1 2 3 4 5
Wind_Direction
172 186 201 210 213 214 213 221 224 230 234 225 190 167 163 170 170 175 182 183 184 185 187 188 188 190 192 195 198 198 198 198 197 196 197 197 195 195 194 194 194 194 195
173 178 188 198 214 218 210 209 211 203 205 188 149 155 162 170 177 180 184 187 190 191 193 194 196 197 198 200 201 202 203 202 202 203 201 201 201 200 201 201 201 202 204
170 167 169 194 216 217 212 207 206 174 163 144 130 146 160 173 177 184 186 188 194 200 202 202 203 204 204 204 205 206 207 208 209 209 209 207 207 207 207 208 210 210 210
172 162 171 217 229 205 188 176 167 145 151 146 158 213 184 180 185 187 187 190 194 201 208 210 209 210 210 210 210 209 208 209 211 213 213 213 213 213 213 215 217 216 215
181 171 180 216 215 175 178 182 153 155 163 181 213 232 221 211 201 188 185 193 198 202 206 213 216 216 215 216 215 214 212 212 211 212 214 216 218 219 218 221 225 224 223
184 176 180 202 178 152 189 149 150 153 167 178 190 316 285 247 201 191 192 188 194 200 202 211 220 224 223 221 219 218 218 216 216 216 217 217 217 218 219 221 226 228 228
176 165 164 175 168 170 212 202 153 137 167 149 104 8 354 347 150 206 182 170 186 201 198 206 215 221 226 224 223 221 221 221 220 219 220 220 220 221 221 222 226 228 229
181 168 165 183 180 184 242 220 163 163 216 168 149 122 356 358 6 343 291 179 190 185 188 204 206 215 217 213 216 218 218 218 220 219 218 219 221 223 225 227 229 233 235
183 178 165 172 182 170 206 232 204 183 213 239 175 162 169 217 309 356 20 57 101 94 84 110 152 211 215 212 214 219 221 223 222 223 223 222 221 225 228 229 235 239 240
160 159 138 138 139 150 202 252 216 190 180 221 241 209 191 176 178 243 0 22 49 66 78 93 89 79 134 161 173 175 198 209 214 216 219 218 217 218 217 224 233 242 246
73 108 116 108 96 94 316 308 350 177 191 195 202 205 196 185 178 184 232 306 22 29 58 83 86 91 101 128 135 136 148 179 191 194 192 189 191 197 204 214 230 248 266
32 58 88 86 79 58 19 2 18 24 269 194 198 184 177 174 184 169 191 197 221 334 20 39 69 89 100 116 128 126 127 138 153 156 155 151 142 128 121 119 120 298 304
61 43 76 67 67 55 46 43 42 23 28 47 196 205 185 194 182 163 164 188 201 276 7 12 25 98 104 109 124 130 124 128 131 134 137 130 120 112 103 91 73 49 29
149 98 88 72 59 54 43 42 45 29 36 32 18 79 167 213 181 174 174 168 179 278 353 323 18 83 107 116 125 130 120 124 124 124 124 121 114 107 97 86 74 61 53
105 83 90 78 56 50 44 41 38 18 27 24 3 7 13 241 206 194 177 174 173 186 252 250 204 86 110 100 103 105 110 118 123 120 120 120 117 110 101 91 80 70 63
81 86 77 74 69 59 49 45 34 21 32 11 5 17 7 324 325 162 170 170 163 167 185 221 204 155 115 106 102 101 106 114 127 133 128 121 119 114 105 96 88 82 76
85 83 80 74 68 58 48 52 44 35 35 19 7 25 15 21 53 60 94 103 121 137 150 164 98 119 109 118 103 104 104 101 105 119 124 123 118 113 109 103 95 87 80
83 89 81 73 69 58 51 55 47 39 45 38 28 38 31 47 54 55 78 94 115 129 145 146 115 92 114 145 135 122 110 103 102 108 117 118 115 111 107 101 94 88 82
83 80 83 80 68 58 55 54 54 51 53 49 44 47 35 54 60 64 77 87 98 105 121 137 134 92 92 112 106 99 95 90 104 106 103 105 107 107 110 108 101 93 87
89 84 84 78 68 64 62 60 63 64 58 51 48 52 50 59 72 78 83 88 99 99 104 116 114 105 106 104 108 108 92 57 86 103 103 111 109 106 109 117 114 104 93
93 84 80 70 65 70 69 74 78 77 69 59 52 54 59 67 70 73 84 88 99 98 98 104 106 99 87 95 123 152 130 110 48 81 76 69 95 51 324 179 151 126 102
84 79 73 68 64 66 79 83 86 82 74 69 64 55 60 60 65 69 74 77 91 104 107 103 102 111 103 94 82 104 112 113 178 272 114 23 109 292 279 272 244 226 230
91 84 76 74 71 69 84 88 87 91 81 75 70 65 70 61 61 67 68 68 67 76 95 114 113 121 133 171 130 101 112 131 173 191 130 205 289 278 273 260 245 248 249
105 99 90 83 79 73 83 92 95 87 80 74 72 74 75 59 61 76 79 68 60 55 67 88 115 131 137 164 164 164 161 120 69 49 118 154 265 270 280 270 254 251 254
113 106 99 95 88 72 79 91 97 91 81 69 64 68 77 73 67 81 83 77 62 40 55 73 82 75 68 79 109 93 82 92 64 337 353 132 235 280 298 291 275 269 266
126 116 100 95 96 85 82 93 101 100 91 77 60 51 62 78 82 91 92 91 80 44 38 43 42 42 42 48 65 99 121 115 109 299 299 111 202 93 317 298 289 283 280
Height
1565 1566 1566 1567 1568 1568 1568 1569 1569 1569 1569 1570 1570 1570 1570 1570 1571 1571 1571 1572 1572 1572 1572 1573 1573 1573 1574 1574 1574 1575 1575 1576 1576 1577 1577 1577 1578 1578 1579 1579 1580 1580 1581
1565 1566 1567 1567 1567 1568 1568 1569 1569 1569 1569 1569 1569 1569 1569 1570 1570 1571 1571 1571 1571 1572 1572 1572 1572 1572 1573 1573 1573 1573 1574 1574 1575 1575 1576 1576 1577 1577 1577 1578 1578 1579 1579
1566 1566 1567 1567 1567 1567 1568 1568 1568 1569 1569 1568 1568 1569 1568 1569 1569 1570 1570 1570 1570 1571 1571 1571 1571 1571 1571 1571 1571 1571 1572 1572 1573 1573 1574 1574 1575 1575 1576 1576 1577 1577 1577
1566 1566 1567 1567 1567 1567 1567 1567 1567 1567 1567 1567 1567 1568 1568 1568 1568 1568 1568 1569 1569 1569 1569 1569 1570 1570 1570 1570 1570 1570 1570 1570 1570 1571 1571 1572 1572 1573 1573 1574 1574 1575 1575
1565 1566 1566 1566 1566 1566 1566 1566 1566 1566 1566 1566 1566 1566 1566 1566 1566 1566 1566 1567 1567 1567 1567 1567 1568 1568 1568 1568 1568 1568 1568 1568 1568 1569 1569 1570 1570 1571 1571 1571 1572 1572 1573
1565 1565 1565 1565 1565 1565 1564 1565 1565 1565 1564 1564 1564 1565 1565 1565 1565 1565 1565 1565 1565 1565 1565 1565 1565 1566 1566 1566 1566 1566 1566 1566 1566 1566 1567 1567 1567 1568 1568 1568 1569 1569 1570
1564 1564 1564 1564 1564 1563 1563 1563 1563 1563 1563 1563 1563 1563 1563 1563 1563 1563 1563 1563 1563 1563 1563 1563 1563 1563 1563 1563 1563 1563 1563 1563 1564 1564 1564 1565 1565 1565 1565 1566 1566 1566 1567
1563 1563 1563 1562 1562 1562 1561 1561 1561 1561 1561 1561 1561 1561 1561 1562 1562 1562 1562 1561 1561 1561 1561 1561 1560 1561 1561 1561 1561 1561 1561 1561 1561 1561 1562 1562 1562 1563 1563 1563 1563 1563 1563
1562 1562 1561 1561 1561 1560 1560 1559 1559 1559 1559 1559 1559 1560 1560 1559 1560 1560 1560 1560 1560 1560 1559 1559 1558 1558 1558 1558 1558 1558 1558 1558 1559 1559 1559 1559 1559 1560 1560 1560 1560 1560 1560
1560 1560 1560 1559 1559 1558 1558 1557 1557 1556 1556 1556 1556 1557 1558 1557 1558 1558 1558 1558 1558 1558 1558 1557 1556 1555 1555 1555 1555 1555 1556 1556 1556 1556 1556 1556 1556 1557 1557 1557 1557 1557 1556
1559 1558 1558 1557 1557 1556 1555 1555 1554 1553 1553 1553 1553 1553 1554 1554 1555 1555 1555 1556 1556 1556 1556 1555 1555 1554 1553 1553 1553 1553 1553 1554 1554 1554 1554 1554 1554 1554 1554 1554 1554 1553 1553
1557 1556 1556 1555 1555 1554 1553 1552 1552 1551 1551 1550 1550 1551 1551 1551 1551 1552 1552 1552 1553 1553 1553 1553 1553 1552 1552 1551 1551 1551 1551 1552 1552 1552 1552 1552 1552 1552 1551 1551 1551 1550 1550
1555 1554 1554 1553 1552 1552 1551 1551 1550 1549 1548 1548 1548 1548 1548 1548 1549 1549 1549 1549 1550 1551 1551 1551 1550 1550 1550 1550 1550 1550 1550 1550 1550 1550 1550 1550 1550 1549 1549 1549 1548 1548 1547
1553 1552 1552 1551 1551 1550 1549 1549 1548 1547 1546 1546 1545 1545 1545 1546 1546 1546 1546 1547 1547 1548 1548 1548 1548 1549 1549 1549 1549 1548 1548 1548 1548 1548 1548 1548 1548 1548 1548 1547 1547 1546 1545
1551 1550 1550 1550 1549 1549 1548 1547 1546 1546 1545 1544 1544 1544 1543 1543 1544 1544 1544 1545 1545 1545 1546 1547 1547 1547 1548 1548 1548 1547 1547 1547 1547 1547 1547 1547 1547 1547 1546 1546 1545 1544 1543
1550 1549 1549 1549 1548 1548 1547 1547 1545 1545 1544 1543 1542 1542 1542 1541 1542 1542 1542 1542 1543 1543 1543 1544 1545 1546 1546 1547 1547 1547 1546 1546 1546 1547 1547 1546 1546 1546 1545 1544 1543 1542 1542
1549 1549 1548 1548 1548 1547 1547 1546 1545 1544 1543 1542 1541 1541 1540 1540 1540 1540 1540 1540 1540 1541 1541 1542 1543 1544 1545 1545 1546 1546 1546 1546 1546 1546 1546 1546 1545 1545 1544 1543 1542 1541 1541
1549 1548 1548 1547 1547 1546 1546 1545 1544 1543 1543 1542 1541 1541 1540 1539 1539 1539 1538 1538 1539 1539 1540 1540 1541 1542 1543 1544 1545 1545 1545 1546 1546 1545 1545 1545 1545 1544 1543 1542 1542 1541 1540
1549 1548 1547 1547 1546 1546 1545 1544 1544 1543 1542 1542 1541 1540 1539 1539 1538 1538 1537 1537 1538 1538 1539 1539 1540 1541 1542 1543 1543 1544 1545 1545 1545 1545 1545 1545 1544 1544 1543 1542 1542 1541 1540
1548 1548 1547 1547 1546 1546 1545 1544 1544 1543 1542 1542 1541 1541 1540 1539 1538 1538 1537 1537 1538 1538 1538 1538 1539 1540 1541 1542 1543 1543 1544 1544 1545 1545 1545 1544 1544 1543 1543 1542 1541 1540 1539
1548 1548 1547 1547 1546 1546 1545 1545 1544 1543 1543 1542 1542 1541 1541 1540 1539 1539 1538 1538 1538 1538 1538 1538 1538 1539 1540 1541 1542 1542 1543 1544 1544 1545 1544 1544 1544 1543 1543 1542 1541 1540 1539
1548 1548 1548 1547 1547 1546 1546 1545 1545 1544 1544 1543 1543 1542 1542 1541 1541 1540 1540 1540 1540 1539 1539 1539 1540 1540 1541 1541 1542 1542 1543 1543 1543 1544 1544 1543 1543 1543 1542 1541 1541 1540 1538
1548 1548 1548 1548 1547 1547 1547 1546 1546 1545 1545 1545 1544 1544 1543 1543 1543 1542 1542 1542 1542 1541 1542 1542 1541 1542 1542 1542 1542 1542 1543 1543 1543 1543 1543 1543 1543 1542 1542 1541 1540 1539 1538
1549 1549 1548 1548 1548 1548 1548 1547 1547 1547 1546 1546 1546 1545 1545 1544 1544 1544 1544 1543 1543 1543 1543 1543 1543 1543 1543 1543 1543 1543 1543 1543 1543 1543 1543 1542 1542 1542 1541 1541 1540 1539 1538
1549 1549 1549 1549 1549 1549 1549 1549 1549 1548 1548 1547 1547 1547 1547 1546 1546 1546 1545 1545 1545 1545 1545 1545 1545 1545 1544 1544 1544 1543 1543 1543 1543 1543 1543 1542 1541 1541 1540 1540 1539 1538 1537
1549 1550 1550 1550 1550 1550 1550 1550 1550 1550 1549 1549 1549 1549 1548 1548 1548 1548 1547 1547 1546 1546 1546 1546 1546 1546 1545 1545 1544 1544 1543 1543 1542 1542 1542 1542 1541 1540 1539 1539 1538 1537 1535